Theta_e
344 344 344 344 344 344 345 345 345 345 345 345 344 344 344 343 343 345 346 345 345 344 343 343 342 342 342 341 341 340 340 339 339 338 337 337 337 335 335 334 332 331 331 330 330 329 329 327 327 328 329 328 327 327 326 326 326 326 325 323 322 322 320 316 313 309 313 314 311 310 308 306 304 305 305 305 304 304 307 307 309 306 304 305 304
344 344 345 345 345 345 346 346 345 345 345 345 344 344 343 343 344 345 344 345 345 343 343 342 341 342 341 340 340 340 339 339 338 337 336 335 335 336 334 332 330 330 329 327 327 328 327 325 325 326 328 326 326 323 324 323 322 322 320 320 319 321 320 317 313 309 308 311 311 310 306 307 303 304 305 304 304 305 305 306 309 307 307 307 306
345 345 345 345 345 346 346 346 346 345 345 344 344 343 344 344 344 344 344 344 344 343 343 342 341 341 340 340 339 338 338 338 338 337 335 334 334 334 333 331 330 329 327 326 325 325 324 324 325 326 327 324 323 322 322 320 319 318 317 317 316 317 318 317 315 311 309 309 312 306 306 308 306 304 304 305 307 306 304 304 305 309 310 309 305
344 344 344 345 346 346 346 346 345 345 345 345 344 344 344 344 343 343 343 343 342 343 343 342 341 340 340 339 338 338 338 337 337 336 335 334 333 332 331 329 328 327 325 324 324 323 323 323 324 324 323 321 320 319 321 320 317 316 315 315 316 319 318 316 316 312 311 309 308 306 308 306 306 305 306 305 306 303 304 305 310 307 306 310 306
342 343 344 344 345 346 346 345 345 345 345 345 344 344 344 343 343 342 342 342 342 342 341 341 340 340 339 338 338 337 336 337 335 335 334 334 333 331 330 328 326 324 324 324 326 323 322 322 322 321 320 317 318 318 316 318 315 316 315 313 313 317 318 316 313 312 313 309 308 310 309 307 308 304 305 303 304 305 306 307 307 305 305 304 310
339 341 343 344 344 345 345 345 344 344 345 345 345 345 345 344 343 342 342 341 341 341 340 339 339 339 339 338 337 337 336 336 335 334 333 334 332 331 329 328 325 323 324 323 323 322 321 320 321 320 318 316 317 316 315 316 316 315 315 315 312 314 315 314 313 311 313 311 308 307 307 306 305 306 305 305 305 304 303 305 305 308 306 306 307
335 340 342 343 344 344 345 345 345 345 345 345 346 346 345 344 343 342 342 341 341 340 339 338 338 338 338 338 336 336 336 335 334 334 333 333 332 330 330 326 324 323 323 322 320 320 320 319 319 319 317 316 316 315 316 316 316 314 316 316 314 315 313 311 310 312 310 310 309 307 306 307 306 304 303 304 305 304 303 304 304 306 305 305 306
332 335 340 343 343 344 345 345 345 345 345 346 346 345 345 344 343 343 341 340 340 339 338 338 339 338 338 337 336 336 335 334 334 334 333 332 330 329 327 323 322 322 322 319 320 319 318 319 319 319 317 316 316 315 317 316 315 316 316 315 315 313 312 312 310 310 309 309 307 305 304 304 304 307 310 304 303 302 306 306 303 303 306 305 305
331 330 336 341 342 344 345 345 345 345 345 345 345 345 344 344 343 343 341 341 340 339 339 338 338 337 336 336 335 335 335 334 333 333 332 331 330 329 323 322 321 320 319 319 320 318 318 318 319 316 318 321 317 315 315 318 317 316 315 315 315 314 312 312 311 308 309 308 307 306 303 304 302 301 302 302 300 302 307 309 304 303 302 302 305
331 331 334 341 343 344 344 344 344 345 345 344 344 344 344 343 342 342 341 341 340 339 338 338 338 337 336 335 335 335 334 334 329 322 322 331 329 328 322 321 320 320 319 318 317 317 317 318 319 318 314 313 308 304 303 304 309 316 315 314 315 313 311 309 308 309 307 303 304 303 303 303 302 302 303 304 305 307 304 305 300 301 304 304 303
331 330 332 340 343 343 343 343 344 343 344 344 344 344 343 343 342 341 340 340 340 338 338 337 337 337 335 335 334 334 334 333 316 310 309 313 326 325 321 320 320 320 319 318 315 316 316 316 313 315 312 311 304 301 300 300 299 300 301 304 314 314 311 309 308 306 303 304 306 304 302 302 304 305 304 306 307 304 306 305 305 302 299 299 297
330 328 328 337 341 342 343 343 343 343 343 343 344 344 343 343 341 340 340 340 339 339 338 337 337 336 335 335 334 334 334 319 307 309 309 305 315 323 321 320 320 320 319 317 316 315 315 313 312 312 311 307 304 303 302 299 297 297 296 297 296 296 302 311 307 306 306 304 304 305 304 303 304 305 304 305 304 304 306 304 303 300 300 299 300
330 328 329 329 336 342 342 342 342 342 342 343 343 343 342 342 341 339 339 339 339 338 337 337 337 336 334 333 333 333 332 307 306 305 303 304 307 317 321 320 319 319 318 316 315 315 314 313 312 312 311 314 310 306 303 302 301 300 300 300 299 297 293 293 297 310 309 310 309 307 305 304 303 305 306 306 309 304 304 302 302 300 303 302 299
331 330 331 331 334 337 341 342 341 342 343 342 343 342 342 341 340 340 340 339 338 338 337 337 337 335 334 333 333 333 328 305 302 302 303 303 304 311 321 321 319 319 317 317 316 315 314 313 312 311 311 309 307 306 305 304 303 305 306 305 302 300 296 294 293 295 302 307 307 307 309 311 308 307 307 305 303 302 302 302 303 301 301 298 301
333 334 334 335 335 335 336 340 340 340 342 342 342 341 341 340 340 339 339 338 338 337 336 336 336 334 334 334 332 332 323 302 302 301 301 302 301 309 322 321 320 319 318 317 316 315 314 316 313 311 310 307 308 307 305 304 304 306 305 305 306 304 303 305 305 306 308 309 309 311 310 310 307 306 306 306 306 307 306 304 304 304 303 304 300
331 331 333 334 336 338 339 336 334 340 341 341 341 340 340 340 339 339 338 339 338 338 337 337 335 334 334 333 331 330 317 299 301 301 301 302 300 317 322 320 318 318 317 317 316 316 315 315 314 311 309 307 307 301 304 305 305 304 304 304 305 306 305 309 302 303 312 311 310 307 303 302 305 309 308 306 307 305 305 303 302 301 300 299 298
326 331 329 332 334 337 339 339 336 339 340 340 340 340 340 339 339 338 337 337 337 336 336 335 335 334 333 332 330 326 313 301 300 300 301 300 305 318 320 319 317 317 316 316 315 315 315 315 314 311 309 307 303 297 299 304 305 304 304 304 305 305 305 305 295 294 294 293 293 293 292 293 294 296 298 301 307 307 306 304 301 302 298 297 300
327 328 330 331 332 335 338 339 340 340 340 340 340 340 340 339 339 337 337 336 335 335 335 335 334 334 332 331 330 322 313 303 298 299 300 300 309 317 318 318 316 315 316 316 315 315 315 317 318 312 310 308 297 296 297 304 305 305 305 305 304 302 304 304 303 299 293 292 292 292 292 292 292 293 293 295 298 303 304 299 302 301 300 299 298
327 327 328 332 333 333 336 336 340 339 340 340 340 339 338 338 338 338 337 337 336 336 333 333 333 333 332 331 323 321 314 305 297 299 299 299 310 317 317 317 315 314 314 314 314 314 314 316 315 313 313 307 295 296 297 305 308 307 307 305 303 301 303 305 302 299 298 298 297 298 296 298 300 300 298 294 296 302 303 304 304 300 297 298 299
329 331 332 333 334 334 334 331 334 337 339 339 339 339 338 338 337 337 337 336 335 334 332 332 332 331 331 331 328 322 316 308 301 297 299 299 305 316 315 316 314 313 313 312 313 312 313 313 309 300 300 296 295 296 296 300 309 309 308 305 303 302 306 307 305 302 301 300 299 300 300 299 300 302 301 296 298 302 301 303 302 301 299 298 299
328 332 332 332 332 332 332 328 327 330 338 339 339 337 337 337 337 335 335 334 333 332 331 331 330 330 330 331 330 323 317 310 303 297 298 299 301 306 313 317 315 314 313 311 311 311 312 311 310 298 295 295 296 296 296 298 302 310 309 306 306 307 306 308 305 306 302 301 300 300 300 301 300 300 301 301 298 299 300 301 303 302 301 298 296
327 328 332 331 331 332 331 329 329 335 339 338 337 336 337 337 336 335 334 333 332 331 330 328 329 329 330 330 329 324 316 309 305 297 298 299 300 302 312 317 315 315 313 312 311 311 311 311 308 298 294 295 295 296 296 297 296 307 309 296 294 297 307 308 306 304 303 301 300 299 299 299 300 301 299 300 302 301 300 300 301 302 303 302 300
327 325 326 331 332 331 332 332 336 339 338 337 336 335 335 335 335 334 333 332 331 330 329 329 329 329 329 329 330 323 316 309 302 300 297 298 298 299 301 310 302 316 314 312 311 311 312 312 306 296 294 294 294 294 295 295 296 300 291 292 293 294 300 305 304 304 302 300 299 299 300 301 301 302 302 301 301 303 303 302 302 302 302 303 304
328 327 325 327 330 333 334 336 338 338 337 336 335 334 334 334 334 333 332 331 330 329 329 329 328 327 327 327 328 319 315 310 301 299 299 296 298 299 297 295 293 313 316 314 313 312 312 310 302 293 294 293 293 293 294 295 298 291 291 291 294 298 303 303 304 303 301 302 301 300 300 300 300 300 301 303 303 304 305 304 304 304 303 303 303
327 328 328 328 329 333 336 338 338 337 336 335 333 333 333 333 332 332 331 331 330 329 329 328 327 326 326 325 326 318 315 310 305 300 297 297 297 297 296 294 292 293 316 317 314 314 306 299 294 293 293 293 292 292 292 294 292 291 291 293 300 302 302 301 303 303 301 300 299 299 298 298 298 299 301 302 304 305 304 305 305 304 304 304 303
325 328 329 329 330 333 335 336 337 336 335 335 333 333 332 331 331 331 330 330 329 328 327 326 326 326 325 326 325 319 316 310 306 303 299 299 298 297 295 293 296 296 301 305 302 298 295 295 293 293 293 293 295 296 296 296 292 291 291 295 302 301 301 300 301 300 298 298 297 296 296 297 298 300 302 304 304 302 303 302 302 302 304 303 303
324 326 329 328 329 332 334 335 335 335 334 334 333 333 332 332 330 328 329 329 329 327 326 325 325 325 325 325 324 318 315 311 307 304 302 302 302 301 298 297 297 296 303 301 299 298 296 296 295 294 294 293 295 295 296 294 293 294 295 297 298 299 300 300 299 300 299 298 297 297 297 297 300 299 299 299 300 301 302 302 303 302 303 301 301
327 328 331 328 325 327 329 314 326 334 333 333 332 332 332 332 330 329 328 329 328 327 326 324 324 324 324 324 323 319 315 312 308 305 304 303 303 303 301 301 303 306 309 308 305 302 299 295 295 298 297 297 299 299 299 297 296 297 298 297 298 299 300 300 300 299 299 298 297 297 297 298 297 298 298 298 299 300 301 300 302 301 299 301 299
325 327 326 325 324 324 328 327 329 333 333 332 333 332 331 331 330 330 332 332 331 328 327 326 325 327 326 325 323 320 316 314 312 304 305 301 302 304 302 303 305 309 307 301 305 302 300 300 299 298 298 298 298 300 300 299 297 298 300 300 300 300 300 298 297 297 297 297 297 297 298 299 299 298 297 298 299 299 301 301 299 299 298 297 295
325 324 326 324 323 323 323 326 329 331 332 332 331 331 315 316 324 331 330 317 312 312 313 325 327 328 326 326 325 322 318 318 303 299 299 298 298 299 299 300 301 306 301 298 302 303 302 301 301 299 299 299 299 298 300 301 300 300 300 297 299 300 299 299 297 296 297 297 297 296 297 298 299 300 299 298 299 300 299 297 298 297 294 294 294
323 323 323 323 320 322 324 326 327 329 331 332 331 328 328 315 306 310 313 313 306 306 307 309 309 311 322 326 321 310 306 299 298 299 298 298 297 297 297 298 299 299 297 302 305 302 301 300 300 301 300 301 300 301 300 301 298 300 301 300 301 300 297 300 299 295 293 295 295 297 297 298 299 300 299 297 299 297 298 297 297 297 295 294 294
322 321 321 322 318 319 324 324 326 326 328 331 330 327 325 322 316 302 299 305 304 304 305 305 305 306 307 313 319 315 300 299 298 298 298 297 296 296 296 298 298 297 296 300 302 300 302 302 301 302 302 301 299 299 302 303 302 303 302 299 299 300 300 299 301 300 298 297 294 293 296 300 301 300 301 299 295 298 297 296 295 294 295 295 295
323 323 322 322 320 319 320 324 323 326 327 328 327 325 323 321 318 315 307 298 300 301 302 302 304 307 305 305 306 304 300 299 298 298 298 296 296 296 296 297 297 297 296 300 300 300 304 306 305 305 303 302 303 303 303 304 304 304 305 303 299 301 302 302 301 302 299 299 296 295 295 295 295 294 293 293 293 292 293 293 294 294 294 293 292
324 322 320 320 320 321 321 322 323 324 326 325 325 324 322 321 321 318 313 309 310 305 301 299 303 304 301 302 303 300 299 298 298 297 296 296 296 295 296 298 297 295 299 302 302 301 307 307 306 306 306 305 305 304 303 305 305 305 305 306 305 305 304 305 303 300 297 298 298 295 295 298 295 295 294 295 295 294 291 290 293 291 291 292 291
323 311 303 310 321 321 322 323 324 322 323 323 322 321 321 319 318 316 314 312 314 314 313 309 302 301 308 302 300 297 296 297 297 296 296 295 295 295 296 299 298 297 301 305 304 305 306 307 308 308 308 306 306 306 305 307 307 307 306 307 307 306 305 304 302 302 300 300 299 298 296 297 300 296 293 292 291 290 290 291 291 293 292 292 292
323 320 318 314 320 322 323 323 322 323 322 323 324 322 318 317 314 314 312 312 313 313 312 313 310 299 300 304 296 295 295 296 296 295 295 295 294 296 298 298 300 301 301 304 304 304 306 307 308 310 310 309 309 308 308 308 308 308 309 308 304 306 306 305 301 300 302 301 298 298 298 299 299 295 296 296 298 295 292 291 290 290 293 292 289
321 318 318 318 320 321 320 319 320 319 311 316 317 318 316 315 315 315 315 314 312 313 315 311 307 306 301 301 296 294 294 295 295 295 295 294 294 299 303 301 301 302 302 303 303 303 305 306 308 310 311 310 310 310 309 310 310 310 305 308 308 308 306 303 301 298 298 297 297 299 298 295 297 297 294 293 292 293 294 294 292 290 290 291 290
321 317 319 321 321 321 319 319 316 302 312 317 317 317 313 313 314 313 312 313 311 312 312 311 305 310 308 303 300 299 296 294 294 294 294 294 294 302 304 302 302 302 302 304 304 305 306 306 308 309 310 311 311 311 310 309 309 309 307 308 305 301 298 298 297 302 295 297 296 296 296 295 295 294 293 293 292 292 292 291 291 291 290 291 290
317 299 293 295 308 320 319 316 313 315 315 316 318 314 312 312 311 313 314 313 311 312 310 311 311 311 311 302 298 297 296 296 296 295 295 297 300 304 305 304 303 303 304 305 304 305 306 307 308 309 309 310 310 310 310 309 309 308 306 303 301 300 297 297 297 297 296 296 296 295 295 294 293 293 293 293 292 292 291 291 291 291 291 291 291
314 313 304 296 309 311 315 312 315 316 315 317 318 316 312 311 312 312 314 314 313 312 312 311 310 312 309 301 298 297 300 299 298 298 297 298 300 304 305 304 304 304 304 306 307 307 307 309 310 310 310 311 311 310 310 310 308 305 305 300 298 297 296 296 296 295 294 294 294 294 293 293 294 293 292 292 292 292 292 292 291 292 292 291 291
313 311 303 302 302 310 310 311 313 316 316 315 316 315 315 312 313 310 315 313 311 310 312 312 312 313 306 297 296 296 303 302 301 300 299 300 302 305 305 305 304 305 304 305 307 308 309 310 310 310 311 310 311 311 311 310 307 302 302 299 299 297 297 298 296 294 295 295 294 294 293 293 293 293 293 292 293 293 292 292 291 290 291 291 291
312 310 310 309 307 310 308 307 308 306 310 308 313 314 310 309 313 312 310 310 306 308 310 311 312 311 301 295 295 295 304 304 301 300 301 301 303 305 305 306 307 308 307 308 309 310 310 309 310 310 310 310 310 310 309 308 307 305 302 299 299 298 297 297 297 295 295 295 294 294 293 293 293 293 293 293 292 293 292 292 292 291 290 291 291
310 310 310 308 310 309 307 308 310 311 309 311 311 306 307 310 311 311 309 308 308 307 309 309 310 307 300 292 293 292 302 304 296 301 301 301 303 304 306 308 308 310 311 312 312 312 310 309 310 310 309 310 311 307 299 303 303 302 301 300 299 297 297 296 295 295 295 295 294 293 293 292 293 292 292 292 292 291 292 291 291 291 291 291 290
311 309 310 308 310 309 310 311 310 308 309 302 303 304 307 311 310 310 310 309 309 307 309 309 307 303 299 293 292 295 304 303 301 302 301 300 302 303 306 309 310 311 312 312 312 312 311 309 309 310 310 310 310 310 307 307 306 302 300 300 298 297 297 296 295 295 295 295 294 293 293 292 292 291 291 291 291 291 290 290 291 291 291 291 291
311 310 309 310 310 310 310 309 310 307 302 304 308 308 306 310 310 309 308 308 305 307 308 308 304 301 297 297 298 300 304 303 299 300 300 301 302 304 307 310 311 312 312 311 312 313 312 310 309 307 306 309 310 309 308 308 308 307 304 301 297 297 296 296 296 295 295 294 294 293 292 292 292 292 291 291 291 291 291 290 290 290 291 290 290
310 310 307 308 307 306 309 309 303 310 309 309 308 308 309 310 310 308 306 306 305 305 305 303 302 300 298 300 300 300 305 304 303 302 301 302 303 306 308 310 311 312 312 312 312 313 310 310 306 303 301 304 307 308 308 308 308 308 308 307 304 302 303 303 302 297 295 294 294 293 292 292 292 291 291 290 290 291 291 290 290 290 290 290 291
311 309 307 306 307 306 307 307 307 306 309 308 307 307 308 307 307 305 302 305 305 303 305 303 302 301 301 301 301 303 305 304 304 303 303 304 306 307 308 309 309 309 308 309 310 310 307 306 305 303 298 303 306 308 307 307 307 307 306 306 306 305 304 304 303 301 299 298 296 294 292 292 292 291 292 291 290 290 290 291 291 290 290 290 290
309 310 309 307 307 306 306 307 306 301 307 306 306 305 304 304 305 304 304 303 303 303 303 302 302 302 301 302 302 304 305 307 306 304 305 306 307 307 308 307 304 306 306 307 307 305 303 305 306 304 300 302 301 306 307 307 306 306 305 306 306 305 303 299 305 304 301 299 298 296 294 293 292 292 292 292 291 289 289 290 290 290 290 290 290
308 309 309 309 307 306 306 306 306 307 307 306 306 306 305 305 305 305 304 305 304 304 304 303 303 302 302 302 302 303 304 303 307 307 306 306 307 307 307 306 302 305 303 303 305 305 306 307 304 303 305 304 304 305 306 305 305 305 305 305 303 296 295 296 300 304 299 300 296 297 297 296 293 292 292 291 291 291 289 289 290 290 290 289 289
310 310 309 309 309 308 308 307 307 307 305 306 306 305 304 303 304 304 305 304 304 304 305 304 303 303 303 302 302 302 303 303 304 306 306 306 307 306 305 305 304 303 303 303 303 304 305 304 304 303 304 304 304 305 304 305 305 305 305 305 296 293 293 294 296 295 298 297 297 296 296 295 296 293 292 292 292 291 290 290 289 289 290 290 289
308 310 309 310 309 308 309 309 307 307 307 306 306 305 304 304 304 304 304 304 304 304 303 304 304 304 303 304 302 303 303 303 304 304 304 303 303 302 302 303 302 302 303 302 302 303 303 303 302 301 301 298 302 303 303 303 304 305 301 294 292 292 291 292 295 292 294 294 297 296 295 294 293 292 292 291 292 291 290 290 289 289 288 288 289
Wind_Speed
15 14 13 14 15 16 15 15 15 14 14 13 14 13 12 11 11 9 10 10 9 11 11 11 11 10 11 10 9 8 8 7 7 6 6 6 6 6 7 8 8 5 4 5 4 3 2 3 3 3 3 3 2 2 2 1 2 1 2 3 3 3 3 3 2 4 3 3 4 2 6 5 4 5 6 7 8 4 3 2 8 7 7 7 8
15 15 14 15 17 16 16 15 15 14 14 14 13 14 12 11 10 10 11 10 9 11 11 10 10 11 11 10 10 10 9 9 8 7 8 7 7 6 6 7 6 5 6 5 4 4 3 4 5 6 5 4 3 3 2 3 3 4 4 4 5 4 5 4 3 4 3 1 4 5 4 4 3 4 3 9 5 5 4 3 7 8 7 7 6
16 16 16 16 18 17 16 16 16 15 15 13 14 14 13 11 11 12 11 11 10 10 11 10 11 11 10 10 10 10 10 9 8 8 8 8 8 7 7 6 6 6 6 5 5 5 6 7 7 7 4 5 4 4 5 6 5 6 6 5 4 5 6 4 3 4 6 4 3 5 4 2 1 2 4 6 8 9 8 6 5 6 3 3 5
16 17 16 17 19 18 17 16 16 15 15 13 15 14 12 11 11 11 12 10 11 9 10 10 11 11 10 11 11 10 11 9 9 9 8 8 7 8 7 7 5 4 4 5 7 8 7 7 5 7 5 5 4 4 3 4 6 5 6 5 4 4 5 5 3 3 6 6 4 5 4 6 3 3 3 5 5 3 1 1 1 2 0 2 2
18 18 18 19 19 18 18 17 17 16 14 12 15 14 13 12 11 12 11 11 11 11 10 10 11 12 11 12 12 11 11 10 9 8 7 7 8 8 7 6 6 5 5 7 7 8 7 6 4 6 5 5 4 4 4 4 6 3 5 4 5 3 4 5 4 2 5 7 6 2 4 4 4 3 2 3 4 5 4 3 4 4 3 3 1
15 18 19 19 19 20 18 17 18 18 16 14 15 14 13 13 12 11 12 13 12 11 11 11 11 12 11 12 12 11 11 10 10 10 9 8 7 7 7 6 6 7 6 7 5 7 5 6 4 6 5 6 5 4 4 4 3 3 3 3 5 4 5 4 3 4 3 6 7 3 2 5 3 1 1 2 3 3 1 3 4 3 4 3 4
12 16 19 19 18 19 19 18 17 16 15 14 13 13 13 13 13 13 12 13 13 13 12 12 10 12 12 12 12 11 11 10 10 10 10 10 9 8 7 7 6 6 5 6 4 6 6 6 5 6 6 6 5 6 5 4 4 4 4 3 2 6 6 5 3 3 4 4 4 5 4 3 4 4 3 3 4 2 1 1 1 5 4 4 4
15 17 18 18 18 17 17 17 16 16 15 14 13 13 13 13 13 12 12 14 14 14 13 13 10 11 12 11 11 10 11 9 10 11 11 10 8 7 6 7 6 5 4 5 4 6 5 5 5 6 6 5 5 5 4 5 4 4 4 4 3 6 6 5 4 4 4 4 3 5 4 3 3 1 1 3 4 2 2 2 1 1 3 4 4
12 16 17 18 18 17 16 15 14 14 14 14 14 14 14 13 13 12 12 12 11 13 12 13 12 12 11 11 11 10 11 10 9 9 10 10 9 9 9 7 7 6 6 6 5 6 5 5 5 5 5 5 6 5 5 3 4 4 3 4 4 6 5 5 5 5 6 5 4 4 4 4 5 5 3 3 2 1 1 2 3 3 3 1 3
13 13 17 17 16 16 16 15 15 15 15 15 15 15 14 13 13 13 13 13 12 12 13 13 12 13 12 11 10 9 9 9 11 15 12 9 9 7 8 7 6 6 7 7 5 5 5 4 5 10 11 11 11 11 10 10 9 4 3 4 5 5 5 5 6 5 6 5 5 6 5 5 6 7 5 4 4 4 4 3 1 3 2 2 3
17 13 18 16 16 16 16 16 15 16 16 15 15 15 15 14 13 13 13 13 14 13 13 13 12 13 12 11 11 9 9 9 17 17 16 14 12 8 9 7 7 7 7 6 7 6 5 6 7 9 11 9 9 12 11 11 10 10 10 9 5 4 5 4 5 5 5 5 4 5 5 5 6 6 6 5 4 5 2 2 2 1 0 2 2
12 11 13 12 15 16 14 16 16 16 16 16 16 15 14 14 14 14 13 13 13 12 12 13 12 12 11 12 12 9 9 13 19 18 18 14 12 10 9 7 8 7 7 7 7 6 6 7 6 6 6 8 8 8 9 10 11 11 11 11 11 11 6 4 5 5 4 5 4 4 4 5 5 5 5 4 5 4 3 3 1 1 0 2 1
14 14 15 15 15 13 14 15 16 16 16 16 16 15 15 15 15 15 15 13 12 13 13 13 13 13 13 13 12 10 9 14 18 16 13 15 16 13 8 8 8 7 8 7 8 7 7 8 7 6 7 13 8 7 7 7 8 10 10 11 11 10 9 12 10 5 3 3 1 4 5 4 4 4 5 5 5 5 4 3 3 4 2 1 2
15 16 16 17 18 14 14 15 16 16 16 16 15 16 15 15 15 14 12 12 13 13 13 14 12 13 12 11 10 10 8 14 18 18 17 16 16 12 8 8 8 8 8 8 8 8 7 9 8 7 6 8 6 7 7 6 6 5 4 4 4 5 6 7 8 8 4 3 1 2 1 3 3 4 5 6 5 4 4 2 3 4 3 3 3
15 15 16 15 15 14 13 13 15 16 16 16 15 16 16 15 15 14 13 14 14 13 13 13 12 12 11 10 10 11 9 18 20 20 18 17 15 9 6 7 7 7 8 7 8 8 8 8 8 7 7 8 7 9 8 7 5 5 4 4 4 4 3 3 2 3 2 2 1 4 4 5 8 6 5 6 5 3 4 3 2 1 0 1 3
10 12 12 13 14 13 15 14 13 15 16 17 15 15 15 15 16 14 13 12 11 10 10 11 12 12 12 11 11 10 11 20 19 20 21 19 16 9 5 7 8 7 8 7 8 7 8 7 8 8 8 8 10 15 11 8 6 5 5 4 4 4 3 4 5 6 2 1 3 4 3 4 8 6 5 6 6 4 4 2 1 0 0 2 5
12 11 14 11 11 13 14 14 14 15 16 16 16 16 16 15 14 12 12 12 12 12 12 12 11 11 12 12 12 9 11 17 20 19 20 21 16 10 7 7 8 7 7 7 7 7 7 7 8 8 8 8 11 15 15 12 7 7 6 5 4 5 5 3 6 10 12 12 11 11 9 11 12 12 12 11 7 5 3 2 3 3 3 3 5
17 16 13 14 12 11 12 14 15 14 15 15 16 15 15 14 14 12 13 13 13 12 12 11 10 10 12 13 13 11 13 15 21 20 20 21 17 12 8 7 8 7 7 7 6 6 8 13 10 8 9 9 14 16 16 12 8 8 7 7 6 5 5 5 4 5 9 10 9 8 9 9 10 10 10 11 10 6 5 4 2 2 3 3 5
14 15 15 15 15 12 13 12 13 15 15 15 15 15 15 14 13 13 12 11 11 11 11 11 10 10 10 11 13 13 13 14 19 20 21 20 17 10 9 7 8 8 7 7 6 5 7 10 13 10 10 12 17 15 17 12 7 8 7 7 7 7 6 8 7 6 4 4 3 4 3 4 4 4 4 7 7 6 4 3 2 1 3 3 4
13 15 16 15 12 10 7 7 7 12 15 15 14 14 13 12 12 13 12 11 10 11 11 11 12 11 11 11 10 12 15 15 16 20 21 21 20 12 8 7 9 9 8 8 7 6 7 7 9 8 13 19 18 17 16 14 6 7 6 7 7 7 6 8 7 7 6 6 5 4 4 4 3 3 4 3 3 3 4 4 3 3 3 3 4
13 13 14 14 12 11 8 12 11 12 13 14 15 14 13 13 13 13 13 11 11 11 13 11 11 11 11 11 10 11 14 15 15 20 22 22 21 17 9 8 9 9 8 8 8 7 7 8 6 9 16 19 19 18 16 15 7 5 7 6 5 6 8 8 9 11 7 6 5 5 6 5 5 5 5 5 5 4 5 5 5 4 5 5 5
16 10 11 15 15 14 12 13 18 17 15 14 13 13 13 13 13 13 12 12 13 14 13 11 11 11 10 11 10 11 14 22 14 17 22 23 22 19 10 8 9 9 9 8 9 7 7 8 7 11 17 19 19 18 17 16 9 2 2 7 6 10 8 8 8 7 6 6 6 6 6 6 5 6 6 6 6 7 6 6 6 6 5 5 5
15 18 15 11 13 15 15 17 16 13 14 15 15 15 14 14 13 14 13 13 14 14 13 12 11 11 11 11 10 11 12 14 24 16 20 24 23 21 14 4 9 11 9 9 9 8 7 8 10 16 17 17 16 16 16 16 9 6 8 7 6 4 5 6 8 7 7 7 7 7 6 6 6 7 7 6 6 7 7 7 8 7 6 6 6
13 16 16 16 14 13 15 17 17 15 17 16 16 16 15 14 14 14 15 14 13 14 12 13 13 13 13 12 10 8 12 10 16 23 20 23 22 23 20 8 4 6 9 7 8 8 8 9 13 19 18 17 16 15 14 13 8 11 9 8 5 2 2 3 3 7 7 6 7 6 6 6 6 5 6 7 7 9 9 9 8 8 8 7 8
12 13 15 16 14 12 13 14 14 16 17 17 16 16 16 16 15 14 14 14 14 13 13 14 14 13 12 12 11 10 12 9 9 16 23 21 22 24 21 12 4 3 8 6 9 7 11 18 20 20 18 17 17 14 11 12 13 12 10 8 6 3 2 3 3 3 4 5 6 6 5 5 5 5 5 6 7 7 9 7 7 7 8 9 8
14 12 11 11 12 13 15 16 16 16 18 15 16 15 17 16 16 15 15 15 14 14 13 13 13 13 12 12 11 11 12 8 8 10 13 18 18 23 19 13 5 1 4 5 9 15 19 22 22 20 17 15 11 8 7 7 9 11 10 7 3 3 4 4 3 5 5 3 4 6 6 5 5 6 6 5 4 7 9 8 7 7 8 8 8
13 11 15 14 13 12 13 14 14 14 17 15 14 14 14 15 15 15 14 15 15 15 14 14 13 13 13 13 12 12 12 11 9 9 8 8 8 14 12 8 4 4 7 7 10 10 16 16 13 14 13 17 15 12 10 9 8 5 4 4 4 4 4 5 5 5 6 5 5 4 4 4 4 4 6 6 6 5 7 7 8 8 8 6 5
6 10 14 13 11 10 13 13 15 14 16 16 14 14 14 15 15 16 16 16 16 15 14 14 15 15 15 14 13 12 13 12 11 12 15 12 12 9 9 8 6 6 7 8 8 9 9 11 13 9 9 8 7 6 6 6 6 6 5 5 5 4 5 6 5 4 4 4 4 5 5 6 5 6 5 6 6 6 5 5 4 5 5 5 4
6 7 6 15 17 15 13 13 15 14 14 16 15 16 17 16 17 15 16 15 15 15 16 16 16 16 15 14 15 14 13 16 18 20 20 21 21 17 15 14 11 8 10 15 12 11 11 10 9 10 9 9 8 7 7 7 7 6 7 6 6 6 5 5 6 6 6 6 6 6 6 6 6 6 7 6 7 7 6 6 4 4 2 3 4
8 10 11 9 7 5 7 8 13 15 15 16 15 13 14 16 14 13 12 16 17 17 15 13 14 13 14 13 14 15 17 14 15 20 21 22 23 24 21 18 16 12 16 21 15 11 11 10 10 10 10 9 9 9 9 8 9 8 8 8 8 7 8 7 7 6 6 7 6 6 5 6 5 6 6 7 6 7 6 7 5 6 5 5 5
8 7 8 11 13 12 11 9 12 13 14 14 14 13 11 4 3 9 15 14 14 17 18 18 18 16 14 12 13 18 15 18 24 25 25 25 25 23 22 20 20 18 20 17 12 10 9 9 9 10 10 9 9 9 9 9 9 9 9 9 8 9 8 8 7 6 6 6 7 6 7 6 6 6 7 7 6 6 6 6 7 6 7 6 6
7 8 8 8 11 12 12 13 13 13 11 11 12 11 11 10 4 6 8 8 17 18 20 18 19 19 17 14 12 10 18 23 26 27 29 28 26 24 23 22 20 19 19 18 11 9 9 10 8 10 10 9 10 9 9 9 9 9 9 8 9 9 9 8 8 8 7 8 7 5 6 7 7 7 5 5 5 5 5 6 6 6 6 6 7
5 6 9 8 6 9 9 8 9 10 11 11 10 10 11 12 11 7 1 9 3 14 18 17 22 23 19 16 18 15 15 21 26 27 29 29 27 26 26 25 22 20 19 11 8 9 9 10 10 9 10 9 10 10 10 9 8 9 9 9 10 10 10 9 9 9 8 8 8 7 6 6 5 5 5 5 5 5 5 5 6 6 7 7 7
7 8 8 9 8 7 7 6 7 10 10 9 9 10 11 11 10 10 7 2 1 1 5 12 20 20 16 18 18 18 21 25 26 26 26 27 27 26 26 21 21 20 20 13 10 9 11 11 11 10 9 9 9 9 9 9 9 9 9 9 9 10 11 10 10 10 8 8 8 7 8 7 7 5 4 5 5 6 5 5 7 6 6 7 7
5 3 5 6 6 7 6 7 9 10 9 9 9 10 10 10 11 10 10 10 10 12 9 4 3 8 12 14 16 18 20 22 24 25 25 25 25 24 21 14 11 6 10 11 12 11 11 10 10 10 10 9 9 9 10 10 9 9 9 10 9 8 9 9 10 11 10 9 7 6 8 8 9 7 6 5 5 5 5 5 6 6 6 5 6
2 2 4 5 5 5 7 7 6 6 7 8 10 10 10 9 8 8 9 8 8 8 5 6 5 3 4 2 11 19 22 23 24 25 24 23 22 24 17 14 14 14 13 12 11 11 10 9 8 8 8 8 9 9 10 10 10 9 9 8 9 10 10 10 9 9 10 10 8 6 7 9 8 7 6 5 6 6 5 5 5 5 5 5 5
2 1 3 2 2 2 1 2 2 1 3 6 7 6 9 10 9 9 8 8 8 8 9 7 5 3 4 3 6 14 20 22 24 25 26 24 27 21 16 16 15 15 14 12 10 9 9 8 7 7 7 7 8 10 9 9 10 11 10 9 7 9 9 8 7 7 7 8 7 9 7 6 7 7 7 7 6 5 6 5 5 5 5 6 6
5 4 1 1 2 4 4 4 3 8 5 4 4 7 8 9 11 12 12 11 10 9 9 9 9 11 10 6 4 6 10 13 19 19 19 20 18 15 14 14 15 16 14 11 10 9 9 8 8 7 7 6 4 5 7 8 7 6 8 10 8 6 8 6 7 8 6 6 6 7 7 6 6 6 6 7 7 6 6 6 6 6 6 6 6
6 7 11 9 2 3 2 2 2 2 4 5 4 5 6 7 8 7 9 11 12 11 9 10 10 10 9 7 7 8 12 10 12 13 14 15 16 14 13 13 14 13 13 13 12 13 13 11 10 9 8 7 7 6 6 6 8 9 7 7 5 4 5 5 6 6 7 7 7 7 7 7 6 6 7 7 6 6 6 6 6 6 6 7 7
8 7 9 12 6 3 3 4 4 2 3 6 7 7 8 9 9 8 7 7 10 10 10 11 11 11 9 11 10 11 14 14 14 14 14 13 14 13 13 13 14 14 14 14 14 14 13 12 11 9 10 9 8 8 7 7 6 7 7 6 5 5 5 6 6 6 6 6 7 7 7 6 6 7 7 7 6 6 6 6 6 7 7 6 7
8 8 6 6 5 3 3 1 2 3 5 6 5 7 9 9 10 10 10 9 8 8 9 10 12 11 12 16 21 22 16 15 14 14 15 16 14 14 13 14 14 14 13 14 14 12 11 10 9 9 10 9 8 7 8 7 7 7 6 6 7 7 6 6 6 6 7 6 6 6 6 6 6 6 6 5 6 6 6 7 6 6 6 7 6
7 7 6 5 5 3 1 1 1 1 1 2 4 5 4 6 8 9 8 7 7 9 9 10 10 9 11 20 21 24 14 12 13 13 12 12 12 12 12 13 13 14 15 14 13 12 11 10 9 8 8 9 8 8 7 8 8 8 6 6 7 7 7 7 7 8 8 8 7 7 6 6 6 6 6 7 6 6 6 7 7 7 6 7 7
6 5 6 6 5 4 3 1 1 2 2 2 2 1 2 5 5 6 7 8 9 10 10 10 8 7 10 16 15 14 6 6 10 12 13 13 13 13 12 12 12 12 11 10 9 10 10 8 7 7 7 8 9 7 5 5 5 6 6 7 7 7 8 7 7 8 8 8 8 7 7 6 6 6 6 6 6 6 7 7 6 7 7 6 6
6 5 5 4 4 4 5 3 2 1 2 3 4 2 3 4 5 5 6 7 8 9 9 9 7 8 8 11 12 10 8 9 9 11 11 11 11 11 12 11 11 10 10 11 11 11 12 12 11 9 7 6 7 6 6 6 7 8 7 7 6 7 7 7 8 8 8 8 8 8 7 6 6 6 6 6 6 6 6 6 6 7 7 6 6
6 5 5 4 5 4 3 4 4 3 2 2 3 3 3 3 3 3 3 3 3 4 4 3 5 7 8 10 12 13 10 11 11 11 10 11 12 12 10 9 10 12 11 11 11 11 11 11 12 11 7 7 8 8 8 7 7 7 7 8 6 6 6 8 8 7 7 8 7 7 6 6 6 6 6 6 6 6 6 6 6 7 6 6 7
6 5 5 5 5 5 5 4 3 3 3 3 2 2 2 2 2 2 3 4 4 3 2 3 2 4 6 9 11 12 10 10 10 10 10 9 9 10 10 9 9 10 11 10 10 10 9 11 10 8 7 7 7 7 6 5 6 6 6 6 7 7 7 7 7 7 7 7 7 6 6 6 7 6 7 6 6 6 6 6 5 6 6 7 7
6 4 4 4 5 5 5 6 5 5 4 3 2 3 3 2 3 2 1 3 4 4 5 6 6 6 4 5 8 10 9 9 10 10 12 12 11 9 8 8 6 6 5 6 8 8 8 11 10 9 7 5 6 6 6 6 6 6 6 7 7 7 6 7 7 8 9 9 7 6 6 6 7 6 7 6 5 6 6 6 6 6 6 6 6
5 6 4 3 3 4 5 5 5 5 4 4 4 4 3 3 3 4 3 3 3 3 3 3 3 5 6 7 7 7 4 4 7 8 9 9 9 9 8 6 5 6 7 7 8 7 7 7 8 7 7 7 4 7 7 6 6 6 6 6 7 8 10 10 7 8 7 8 8 6 6 7 7 7 7 7 7 5 6 6 6 6 6 6 6
5 4 5 6 4 4 4 4 5 5 5 4 4 4 3 2 3 3 3 4 4 4 3 3 2 3 3 4 5 2 3 3 4 7 8 9 10 10 9 9 8 7 6 6 8 10 8 9 6 7 9 7 6 6 7 6 6 5 5 5 7 14 15 15 9 9 10 9 8 8 7 6 6 7 8 8 9 7 6 6 7 7 6 6 6
4 4 3 4 4 4 4 3 4 3 4 4 4 3 3 3 3 2 3 4 4 4 4 5 5 4 3 4 4 2 3 3 2 1 4 6 8 8 8 7 6 6 6 6 5 7 7 7 7 8 9 7 6 6 6 6 5 5 5 6 11 14 13 15 12 13 12 6 8 7 8 6 5 5 6 8 8 8 8 6 6 7 7 7 6
7 4 1 3 3 3 5 5 4 4 4 3 3 3 3 3 3 2 2 3 3 3 3 3 4 5 5 5 6 5 5 6 5 5 5 4 5 6 6 6 6 6 5 5 5 6 5 6 6 7 7 6 6 6 5 5 5 5 6 9 13 13 14 13 8 11 12 8 6 6 6 6 5 5 5 5 6 7 8 8 6 5 5 7 7
Wind_Direction
167 176 181 190 193 197 194 192 193 193 193 183 179 180 185 189 185 176 166 172 174 171 177 175 175 176 177 178 179 180 182 176 180 176 173 171 162 177 170 179 187 172 179 180 178 112 178 190 196 205 215 198 190 128 132 157 173 238 270 230 187 163 153 158 182 115 49 103 119 123 137 130 154 157 168 135 165 191 203 121 146 154 182 190 201
179 177 184 189 195 199 192 191 193 194 191 183 179 178 185 185 179 173 172 171 177 175 179 176 176 177 179 177 177 176 184 177 178 181 180 176 171 174 160 180 186 183 191 194 148 156 176 197 207 206 213 184 188 175 170 184 204 188 229 245 189 177 168 149 177 132 140 108 112 90 119 125 155 169 174 141 169 165 168 207 171 185 193 210 171
187 182 186 191 196 199 193 190 191 191 189 186 179 181 181 182 178 175 172 173 178 180 183 176 177 175 178 178 178 176 181 175 181 185 183 178 171 170 156 181 186 206 185 150 163 177 195 200 206 184 188 171 187 214 181 193 206 195 206 224 213 180 166 159 150 132 146 169 152 140 141 130 141 215 179 154 167 167 179 194 204 192 184 144 129
189 191 190 194 195 197 196 189 187 189 191 184 180 179 178 180 178 176 173 169 174 174 186 177 175 179 181 180 176 178 179 178 181 186 183 180 176 172 160 164 180 197 165 172 181 190 196 195 202 174 162 170 198 214 232 192 204 197 196 196 208 166 154 162 160 126 162 149 189 167 151 145 188 263 256 154 135 120 118 242 65 81 70 168 177
190 192 192 194 196 197 195 188 186 189 191 184 179 179 176 178 178 177 170 167 171 175 187 182 181 183 185 181 178 180 180 176 176 180 184 188 183 175 167 169 173 194 185 186 192 183 189 184 180 147 150 165 201 199 225 230 193 215 191 189 174 163 128 150 146 127 131 153 165 215 136 146 165 193 249 118 147 149 179 199 171 183 195 184 196
200 191 194 195 196 197 194 188 187 188 186 182 181 182 174 175 177 177 173 167 171 178 188 190 186 185 186 185 182 178 178 175 178 182 188 185 180 175 166 176 180 191 190 187 195 168 170 179 168 151 161 176 192 196 214 211 192 220 194 189 156 142 122 121 112 141 124 142 148 172 122 143 126 138 254 130 137 159 189 207 196 177 193 179 158
222 206 194 196 196 195 191 188 186 185 182 181 178 179 176 177 177 179 176 173 172 178 187 193 190 186 188 187 187 177 178 175 176 179 193 183 189 178 174 167 173 191 185 186 182 157 164 175 176 161 171 184 181 195 202 190 196 219 183 179 152 128 126 128 141 139 145 147 146 153 151 126 136 167 226 210 130 126 192 295 233 196 194 177 200
204 221 202 194 196 193 190 186 185 184 181 177 174 178 178 178 177 177 179 179 176 179 181 194 189 188 188 184 185 178 178 175 173 180 198 181 186 183 163 163 174 181 176 181 181 163 172 174 177 166 170 186 178 191 191 178 189 206 163 157 120 132 133 138 158 157 156 164 150 146 138 148 147 97 328 117 106 150 189 210 211 51 144 216 204
200 221 218 196 194 191 187 188 187 183 182 176 173 178 180 179 177 179 179 178 179 177 181 193 186 189 188 186 184 174 176 176 176 180 196 187 178 186 156 164 170 177 179 185 176 164 174 175 165 167 168 153 136 115 90 106 173 164 150 142 128 137 135 154 165 166 158 153 127 125 146 168 162 171 190 127 152 218 132 91 42 352 317 268 236
209 215 221 202 190 184 185 185 186 183 182 179 176 179 178 178 178 178 181 181 179 177 185 193 184 184 192 182 184 176 175 175 174 178 190 200 177 172 145 160 179 182 183 182 166 170 173 162 132 121 116 115 107 101 92 77 67 72 152 143 136 142 153 160 176 160 144 154 157 157 170 200 177 170 185 176 171 129 123 115 160 243 261 296 308
197 205 227 202 193 186 184 184 184 187 184 181 176 178 179 177 180 179 182 183 182 181 185 189 183 184 189 184 189 183 176 170 168 176 191 195 174 163 154 167 188 188 180 177 169 169 165 116 124 123 116 110 107 105 99 92 85 82 74 72 71 145 166 164 165 144 146 158 164 169 190 187 190 173 174 166 145 131 142 149 148 56 336 270 281
187 185 247 239 195 189 184 182 183 186 187 183 177 179 178 175 178 179 181 187 185 182 184 186 182 180 186 192 191 178 179 154 163 176 197 209 181 145 153 172 188 186 179 176 169 170 150 133 138 145 137 131 129 109 102 102 100 91 85 82 75 56 59 138 149 136 144 155 172 208 190 184 183 152 151 127 132 115 131 118 140 147 118 342 296
192 196 197 228 224 191 183 185 186 186 186 183 178 178 181 176 177 179 184 188 184 184 185 185 183 183 189 191 184 171 175 153 162 165 164 154 146 143 159 178 182 183 180 177 172 172 154 148 150 166 150 145 135 129 124 111 100 105 103 92 76 77 71 70 65 97 114 106 152 245 190 170 164 165 146 140 123 135 147 155 178 161 173 228 256
193 201 196 196 212 199 193 186 190 189 187 184 178 180 182 179 178 177 179 185 187 187 187 188 186 186 186 184 173 170 155 161 150 151 153 151 151 149 166 175 182 182 181 180 172 176 168 156 161 171 153 156 150 142 140 130 135 128 125 118 104 93 76 74 88 82 97 118 217 290 236 111 113 117 107 109 110 126 142 190 142 143 168 214 233
195 200 200 199 194 192 204 192 190 190 188 185 180 181 180 178 179 178 181 186 187 188 184 185 186 184 182 177 169 171 161 163 156 152 154 155 156 155 168 175 179 183 181 182 174 175 171 158 160 170 160 165 164 155 147 149 147 146 139 142 137 139 138 138 129 141 133 204 244 67 9 73 106 106 102 102 112 108 107 105 102 126 111 10 334
214 199 220 201 195 190 187 190 198 190 188 187 182 181 179 179 179 179 180 184 188 184 183 184 183 186 183 176 172 168 159 164 162 160 158 158 155 166 187 177 180 182 181 180 175 172 169 161 157 171 165 168 168 157 152 152 152 153 156 159 153 142 147 176 125 74 73 62 78 99 84 81 99 111 116 112 98 97 96 73 68 77 237 256 250
229 225 211 219 209 192 192 183 189 187 193 184 181 180 180 178 179 176 178 181 182 185 185 183 182 181 178 177 174 159 155 167 164 167 162 160 159 175 189 179 180 183 179 179 175 168 169 168 161 166 161 170 166 160 156 155 161 163 165 168 165 147 160 134 94 103 98 94 99 105 106 92 95 99 101 105 107 106 100 145 211 195 202 235 258
193 201 205 212 211 195 193 188 182 183 184 187 185 183 179 177 178 175 179 179 182 185 177 176 176 178 180 181 177 159 165 170 168 168 164 164 166 174 185 178 182 182 174 176 171 170 171 173 168 168 163 169 164 164 160 158 167 170 170 167 163 170 163 145 123 82 95 98 97 99 102 103 96 96 104 114 121 125 129 178 215 174 221 230 258
200 198 202 205 207 195 190 187 184 182 185 186 185 181 180 178 177 174 180 179 183 182 178 179 181 182 184 185 171 158 163 168 175 169 166 169 170 175 181 184 180 182 171 171 173 168 174 175 178 172 171 158 163 163 167 168 169 174 172 164 171 184 178 159 150 142 145 130 120 118 78 103 123 127 134 130 139 149 166 200 244 182 231 265 289
204 200 199 201 203 195 156 155 200 198 187 185 183 182 176 175 174 176 178 179 177 179 175 180 183 189 185 185 174 163 166 166 180 175 169 170 174 173 187 188 181 178 172 171 174 180 171 175 178 160 154 156 164 165 172 177 172 170 166 169 181 187 172 159 160 158 168 173 172 172 164 168 166 158 144 154 166 186 187 198 216 208 230 257 274
221 205 198 196 193 187 157 148 186 225 213 184 181 179 177 178 176 176 175 174 175 179 178 179 179 184 186 188 178 172 170 158 179 180 172 172 176 174 190 194 178 174 173 167 179 180 172 173 167 149 154 163 164 169 171 181 179 161 169 178 189 182 164 150 159 162 172 180 179 172 173 169 178 183 179 175 187 195 201 212 211 204 200 225 255
209 217 209 197 193 187 174 178 195 200 198 186 179 180 182 179 177 176 175 174 177 181 181 182 184 186 188 188 180 172 169 170 161 186 176 175 178 180 185 194 177 170 173 172 176 185 175 169 155 161 160 166 170 171 173 176 162 79 123 122 120 156 163 145 154 164 170 177 175 173 179 181 182 185 193 189 192 193 196 207 210 211 212 205 219
204 199 203 189 191 189 182 189 193 191 185 179 179 184 183 181 178 176 176 176 177 180 180 184 186 188 189 192 182 166 159 166 170 177 184 177 181 183 193 210 174 168 178 176 180 178 174 153 144 152 159 166 172 173 173 172 151 117 131 103 107 116 157 146 159 174 174 176 179 177 182 186 189 191 186 193 196 192 193 200 206 206 213 219 226
217 206 203 200 194 193 189 188 186 184 179 178 181 183 183 183 181 181 179 178 181 181 183 185 188 188 187 186 178 146 164 162 174 174 179 181 181 185 194 191 348 184 181 174 175 170 165 140 153 156 160 165 167 170 170 167 143 134 124 129 104 110 173 182 177 178 184 166 172 176 183 186 188 199 193 190 198 189 192 195 198 199 201 213 222
230 209 199 196 191 193 184 182 181 180 177 176 178 183 184 182 183 185 182 183 181 184 185 186 187 186 184 182 177 157 167 154 159 179 175 182 182 188 193 179 226 293 171 176 164 177 149 145 154 157 160 162 162 161 162 167 142 141 135 140 146 181 185 198 180 136 179 171 170 177 192 204 198 202 212 215 213 181 183 190 193 197 199 205 212
231 213 196 186 185 194 191 184 181 180 177 178 181 184 184 184 185 184 186 185 185 185 184 185 187 185 185 183 177 160 166 144 155 168 182 180 184 191 184 166 189 327 97 110 150 135 139 151 155 155 151 150 146 150 159 171 149 152 150 155 175 189 190 202 200 163 191 188 188 190 197 202 201 205 218 231 222 175 173 187 189 199 200 199 206
231 217 184 185 190 199 198 189 183 182 181 183 184 187 185 187 184 183 185 185 187 188 185 184 186 185 183 177 171 155 163 159 157 160 168 174 179 185 166 160 199 175 120 112 106 117 137 142 149 148 149 154 153 155 151 139 124 141 158 179 191 204 201 202 204 190 183 191 199 206 208 218 214 202 223 233 234 214 174 175 176 186 178 186 193
265 247 178 165 162 202 203 205 195 182 187 185 186 189 189 189 187 185 186 189 189 188 185 186 187 184 184 176 172 164 169 167 165 171 178 175 173 157 158 160 180 191 145 134 122 117 115 119 121 117 123 134 136 153 151 157 161 159 174 180 197 204 210 214 220 210 203 195 200 188 199 202 210 214 223 223 214 214 180 168 162 175 180 174 194
118 74 112 153 171 195 200 194 204 196 186 189 193 192 188 189 192 192 195 195 194 188 189 191 190 189 185 179 175 178 179 183 190 184 177 174 173 170 172 177 176 189 150 131 124 120 123 132 133 138 150 157 161 169 169 168 183 182 185 184 191 196 203 203 207 210 202 194 205 201 205 195 201 210 220 221 211 191 165 155 165 178 215 190 209
158 154 147 155 178 201 238 234 219 204 191 189 192 197 204 203 199 194 194 196 194 198 193 194 191 185 186 187 186 185 191 190 148 157 167 175 180 179 176 165 165 172 143 138 136 139 144 145 154 155 161 166 172 175 177 178 181 187 193 193 191 193 199 204 205 204 202 201 196 198 215 215 219 217 215 215 191 167 164 164 182 184 203 217 228
177 173 163 169 180 185 189 207 226 221 203 191 191 189 184 178 326 218 203 191 188 186 187 188 186 195 187 185 186 179 154 137 153 166 168 177 181 178 168 168 167 169 145 139 144 149 155 154 159 164 166 172 175 181 178 183 186 185 186 188 197 195 194 200 200 194 193 199 199 201 203 211 225 230 216 194 169 171 162 176 176 182 199 213 224
173 167 164 164 157 178 197 195 204 216 222 202 189 182 179 181 191 28 9 219 189 185 186 183 182 193 195 193 180 169 152 155 161 169 175 177 177 172 168 166 172 168 163 149 147 161 164 161 167 167 173 177 179 183 188 188 187 192 188 177 190 197 193 199 191 191 189 192 195 206 211 210 216 228 206 178 171 179 173 179 184 188 199 208 216
166 151 154 150 142 183 198 205 207 210 208 196 188 179 177 183 176 190 2 13 240 196 188 187 183 189 196 191 171 160 161 160 169 176 175 173 170 170 169 169 171 170 158 160 160 160 170 171 174 175 176 182 177 184 190 196 191 190 197 183 183 193 195 192 179 190 191 191 185 198 211 226 229 223 205 182 168 191 190 193 194 195 198 208 224
172 167 155 157 163 164 176 202 213 214 201 197 192 181 180 176 181 173 159 168 86 359 265 191 182 177 178 169 156 154 161 167 173 175 174 172 170 167 165 169 168 167 168 171 172 174 172 172 176 181 183 182 184 180 186 195 200 194 194 199 187 187 191 190 186 189 189 189 188 189 194 210 218 216 208 191 184 184 194 208 199 191 197 197 207
350 9 113 146 174 176 172 193 207 203 218 202 188 179 178 180 173 166 174 174 189 192 186 221 232 175 167 172 158 155 162 167 168 170 171 170 166 161 150 146 157 191 189 186 180 182 183 177 176 177 183 184 188 181 185 193 200 199 197 197 197 188 185 184 189 186 186 186 191 189 187 197 203 205 189 191 189 193 203 206 208 194 195 203 197
105 153 161 149 165 185 190 183 206 225 207 202 195 182 169 169 166 170 170 175 174 172 180 182 165 30 35 137 153 159 162 164 166 167 166 163 158 148 156 173 174 179 185 189 191 187 182 183 182 185 183 187 185 186 184 195 203 201 202 195 187 193 197 198 187 184 180 181 186 197 187 189 190 185 189 189 197 200 203 205 207 206 201 210 211
89 69 56 108 152 197 223 45 71 227 228 201 174 158 155 158 164 168 171 178 179 179 174 145 104 66 54 88 159 174 168 166 167 164 162 161 163 166 173 173 178 176 183 185 182 185 186 192 194 195 197 206 191 183 185 194 199 201 202 201 199 196 181 164 152 161 158 170 174 188 193 183 185 178 173 187 197 202 210 208 205 206 208 220 216
41 22 24 78 153 148 145 159 165 120 113 96 125 147 149 162 173 171 174 180 176 172 168 170 178 172 176 183 129 167 176 170 156 155 157 158 165 181 179 175 174 176 179 179 174 168 186 200 201 208 205 223 220 183 182 194 208 204 188 193 181 163 142 151 156 165 169 165 172 182 186 185 179 173 168 177 190 197 206 204 195 201 214 217 213
34 45 34 20 34 134 169 131 159 146 153 176 181 156 151 162 174 182 182 173 174 175 172 175 181 185 180 143 128 130 127 142 164 172 174 179 181 182 174 172 176 176 172 173 173 181 191 190 195 197 196 204 216 211 204 200 195 196 160 144 153 154 151 167 171 169 171 182 180 173 171 176 174 175 173 176 189 192 195 201 200 195 197 209 213
18 15 2 2 8 11 194 178 183 181 183 183 178 169 164 174 180 183 182 186 190 182 175 178 186 193 172 155 158 160 172 174 179 176 175 179 184 184 176 173 176 175 176 176 179 188 189 188 187 188 192 202 202 197 204 204 171 159 152 150 161 166 169 167 166 158 153 158 161 163 160 167 172 170 175 177 184 187 197 202 206 203 204 204 204
10 6 5 2 350 352 357 347 201 202 189 199 188 184 184 177 178 182 188 178 175 179 188 193 192 191 172 179 177 179 181 179 176 177 178 180 181 180 178 178 175 175 178 183 185 185 185 184 180 184 192 198 198 197 203 186 164 160 158 158 166 177 177 176 166 161 157 161 163 168 172 167 166 165 183 199 196 194 199 202 204 202 205 207 204
11 0 6 354 354 358 24 10 358 347 300 197 192 178 166 175 179 186 184 174 174 177 181 193 193 184 177 188 189 189 186 181 175 172 173 180 181 184 182 182 182 179 181 184 179 175 172 180 182 188 190 188 193 207 188 167 161 161 162 165 171 178 177 182 175 168 164 165 170 171 172 172 176 180 187 190 196 200 199 196 202 204 204 203 206
16 10 3 353 351 354 353 0 108 130 162 210 228 84 137 167 175 179 181 182 182 182 190 194 191 167 166 171 186 201 211 182 173 176 177 181 184 182 182 184 182 181 173 164 157 151 158 181 203 204 200 188 189 187 171 166 159 159 163 172 174 172 174 170 159 168 167 162 168 171 174 177 181 186 191 195 197 194 197 193 194 197 203 204 200
7 20 14 0 355 347 350 351 6 41 72 89 94 104 151 174 184 188 189 193 192 192 197 191 179 162 160 160 164 181 190 175 185 184 178 179 184 183 186 179 177 172 167 166 168 169 171 177 185 204 210 183 175 170 164 159 159 158 161 167 172 167 169 169 169 171 170 166 165 169 180 187 187 188 192 192 189 196 199 194 197 194 196 201 202
12 13 12 12 5 1 7 356 3 21 53 88 101 116 137 153 173 172 175 188 203 213 215 186 157 153 152 167 174 185 186 182 182 181 183 183 181 187 182 174 172 174 173 175 175 175 174 176 179 193 187 178 172 167 168 158 157 155 160 161 168 165 162 167 173 166 160 161 165 169 177 183 191 195 195 195 191 190 201 198 192 192 194 198 195
14 7 13 8 11 13 6 15 347 347 19 35 68 113 123 147 150 149 156 136 130 119 64 70 108 154 166 175 182 190 188 178 179 174 176 184 185 187 185 179 173 176 179 181 179 180 171 174 176 177 160 161 154 134 143 166 171 161 160 152 158 159 155 151 150 156 166 168 173 172 173 175 188 191 195 191 192 189 194 199 193 192 192 200 205
358 13 17 27 13 14 14 7 11 8 15 30 38 49 50 58 50 56 64 95 121 134 139 141 143 149 161 183 195 202 198 182 181 176 180 184 181 179 177 178 175 171 158 147 155 152 149 160 156 152 145 143 142 154 171 164 164 160 157 150 149 154 158 163 163 160 170 176 170 168 170 173 181 187 196 199 203 195 192 195 196 199 200 198 200
358 354 354 25 46 24 13 8 1 346 10 28 28 36 66 63 79 82 91 92 86 72 77 98 127 152 158 173 189 208 237 225 190 179 171 169 167 166 166 160 144 144 143 147 136 128 126 115 117 135 144 154 166 169 170 160 149 148 150 149 156 162 166 166 173 175 161 167 176 174 171 174 177 180 185 191 204 201 189 199 195 194 198 202 205
352 3 14 7 19 23 18 13 10 9 22 28 34 46 33 56 87 99 99 100 97 95 93 95 98 116 143 151 163 188 328 290 205 178 171 165 159 159 161 159 156 152 150 146 139 142 147 148 151 155 164 169 174 161 147 143 142 152 162 174 165 165 166 169 170 172 171 163 166 177 180 179 174 180 182 185 196 203 199 192 192 196 195 195 200
325 352 9 5 11 20 20 26 23 41 25 26 37 43 36 32 29 61 90 95 108 116 129 128 133 129 118 114 129 93 47 20 15 168 166 162 156 149 142 136 138 142 146 145 131 134 153 147 137 148 163 168 159 147 139 143 156 168 182 180 177 172 174 177 167 162 169 162 161 166 170 184 189 181 179 184 190 193 199 202 183 186 192 197 199
340 298 347 9 350 17 48 38 25 30 40 39 40 47 43 39 37 36 72 101 114 104 114 122 137 137 143 138 129 110 91 77 69 55 50 61 78 87 99 112 117 121 123 110 112 130 129 114 137 157 163 163 158 145 151 159 173 189 181 171 171 171 168 161 148 148 149 147 153 152 163 168 185 197 202 183 174 187 193 197 196 188 188 190 199